This is the latest recevied weather packets stored in our database for station/object F1DKL-13. If no packets are shown the sender has not sent any weather packets the latest 10 day(s).
| Time | Temp. | Humidity | Pressure | Rain* | Wind** | Luminosity | Snow |
|---|---|---|---|---|---|---|---|
| 1778064005 | 16.67° C | 62% | 1018.3 hPa | 1.02 mm | - | - | - |
| 1778063705 | 15.56° C | 64% | 1018.3 hPa | 1.02 mm | - | - | - |
| 1778063405 | 14.44° C | 61% | 1018.3 hPa | 1.02 mm | - | - | - |
| 1778063105 | 13.33° C | 58% | 1018.3 hPa | 1.02 mm | - | - | - |
| 1778062805 | 13.33° C | 56% | 1018.3 hPa | 1.02 mm | - | - | - |
| 1778062505 | 13.33° C | 54% | 1018.3 hPa | 1.02 mm | - | - | - |
| 1778062205 | 13.33° C | 52% | 1018.3 hPa | 1.02 mm | - | - | - |
| 1778061605 | 15° C | 48% | 1018.3 hPa | 1.02 mm | - | - | - |
| 1778061304 | 16.11° C | 49% | 1017.2 hPa | 0 mm | - | - | - |
| 1778061005 | 17.22° C | 48% | 1017.2 hPa | 0 mm | - | - | - |
| 1778060705 | 17.78° C | 49% | 1017.2 hPa | 0 mm | - | - | - |
| 1778060405 | 18.89° C | 51% | 1017.2 hPa | 0 mm | - | - | - |
| 1778060105 | 19.44° C | 52% | 1017.2 hPa | 0 mm | - | - | - |
| 1778059805 | 20° C | 57% | 1017.2 hPa | 0 mm | - | - | - |
| 1778059505 | 19.44° C | 65% | 1017.2 hPa | 0 mm | - | - | - |
| 1778059205 | 18.89° C | 74% | 1017.2 hPa | 0 mm | - | - | - |
| 1778058905 | 18.33° C | 98% | 1017.2 hPa | 1.02 mm | - | - | - |
| 1778058605 | 17.78° C | 98% | 1017.2 hPa | 1.02 mm | - | - | - |
| 1778058305 | 16.11° C | 98% | 1017.2 hPa | 1.02 mm | - | - | - |
| 1778058005 | 14.44° C | 98% | 1017.2 hPa | 1.02 mm | - | - | - |
| 1778057705 | 13.89° C | 98% | 1017.2 hPa | 1.02 mm | - | - | - |
| 1778057405 | 12.22° C | 98% | 1017.2 hPa | 1.02 mm | - | - | - |
| 1778057104 | 12.22° C | 98% | 1017.2 hPa | 1.02 mm | - | - | - |
| 1778056805 | 12.22° C | 94% | 1017.2 hPa | 1.02 mm | - | - | - |
| 1778056505 | 12.22° C | 95% | 1017.2 hPa | 1.02 mm | - | - | - |
* Rain latest hour (hover to see other rain measurements)
** Current wind speed in m/s (hover to see current wind gust speed)